Weather reports worldwide

Advertisment
Moskva, Russia (27612): temperature & dewpoint: 12.10.2018 00:00:00 - 18.10.2018 00:00:00 (MSK)Moskva, Russia (27612): wind speed: 12.10.2018 00:00:00 - 18.10.2018 00:00:00 (MSK)Moskva, Russia (27612): wind direction: 12.10.2018 00:00:00 - 18.10.2018 00:00:00 (MSK)Moskva, Russia (27612): reduced air pressure: 12.10.2018 00:00:00 - 18.10.2018 00:00:00 (MSK)Moskva, Russia (27612): visibility: 12.10.2018 00:00:00 - 18.10.2018 00:00:00 (MSK)
Date & Time tt [°C] td [°C] ff [km/h] ff [kn] dd ppp [hPa] vv [km]
18.10.2018 00:00:00 6,0 5,7 0 0 N 1026,3 -
17.10.2018 23:00:00 - - - - - - -
17.10.2018 22:00:00 - - - - - - -
17.10.2018 21:00:00 7,7 6,9 0 0 N 1026,1 -
17.10.2018 20:00:00 - - - - - - -
17.10.2018 19:00:00 - - - - - - -
17.10.2018 18:00:00 11,0 7,4 0 0 N 1025,9 10
17.10.2018 17:00:00 - - - - - - -
17.10.2018 16:00:00 - - - - - - -
17.10.2018 15:00:00 15,9 6,4 0 0 N 1025,7 10
17.10.2018 14:00:00 - - - - - - -
17.10.2018 13:00:00 - - - - - - -
17.10.2018 12:00:00 15,1 5,6 4 2 W 1026,0 10
17.10.2018 11:00:00 - - - - - - -
17.10.2018 10:00:00 - - - - - - -
17.10.2018 09:00:00 10,0 5,2 4 2 W 1025,4 10
17.10.2018 08:00:00 - - - - - - -
17.10.2018 07:00:00 - - - - - - -
17.10.2018 06:00:00 6,8 4,7 0 0 N 1025,1 -
17.10.2018 05:00:00 - - - - - - -
17.10.2018 04:00:00 - - - - - - -
17.10.2018 03:00:00 8,5 4,8 0 0 N 1024,5 -
17.10.2018 02:00:00 - - - - - - -
17.10.2018 01:00:00 - - - - - - -
17.10.2018 00:00:00 10,8 4,6 0 0 N 1024,2 -
16.10.2018 23:00:00 - - - - - - -
16.10.2018 22:00:00 - - - - - - -
16.10.2018 21:00:00 13,3 4,2 4 2 WNW 1024,0 -
16.10.2018 20:00:00 - - - - - - -
16.10.2018 19:00:00 - - - - - - -
16.10.2018 18:00:00 14,2 4,0 4 2 WSW 1024,2 10
16.10.2018 17:00:00 - - - - - - -
16.10.2018 16:00:00 - - - - - - -
16.10.2018 15:00:00 16,3 3,5 4 2 W 1025,0 10
16.10.2018 14:00:00 - - - - - - -
16.10.2018 13:00:00 - - - - - - -
16.10.2018 12:00:00 14,8 5,1 4 2 W 1026,3 10
16.10.2018 11:00:00 - - - - - - -
16.10.2018 10:00:00 - - - - - - -
16.10.2018 09:00:00 8,8 7,3 4 2 WSW 1027,0 4,0
16.10.2018 08:00:00 - - - - - - -
16.10.2018 07:00:00 - - - - - - -
16.10.2018 06:00:00 6,6 6,4 0 0 N 1027,3 -
16.10.2018 05:00:00 - - - - - - -
16.10.2018 04:00:00 - - - - - - -
16.10.2018 03:00:00 7,2 6,8 0 0 N 1027,7 -
16.10.2018 02:00:00 - - - - - - -
16.10.2018 01:00:00 - - - - - - -
16.10.2018 00:00:00 9,0 7,8 0 0 N 1027,4 -
15.10.2018 23:00:00 - - - - - - -
15.10.2018 22:00:00 - - - - - - -
15.10.2018 21:00:00 9,7 8,2 0 0 N 1027,3 -
15.10.2018 20:00:00 - - - - - - -
15.10.2018 19:00:00 - - - - - - -
15.10.2018 18:00:00 12,7 8,5 0 0 N 1027,3 10
15.10.2018 17:00:00 - - - - - - -
15.10.2018 16:00:00 - - - - - - -
15.10.2018 15:00:00 17,9 8,2 4 2 WNW 1027,4 10
15.10.2018 14:00:00 - - - - - - -
15.10.2018 13:00:00 - - - - - - -
15.10.2018 12:00:00 16,0 10,0 4 2 W 1028,0 10
15.10.2018 11:00:00 - - - - - - -
15.10.2018 10:00:00 - - - - - - -
15.10.2018 09:00:00 10,6 10,4 4 2 W 1027,9 4,0
15.10.2018 08:00:00 - - - - - - -
15.10.2018 07:00:00 - - - - - - -
15.10.2018 06:00:00 8,8 8,5 0 0 N 1027,6 -
15.10.2018 05:00:00 - - - - - - -
15.10.2018 04:00:00 - - - - - - -
15.10.2018 03:00:00 10,0 9,4 0 0 N 1027,4 -
15.10.2018 02:00:00 - - - - - - -
15.10.2018 01:00:00 - - - - - - -
15.10.2018 00:00:00 12,4 10,2 0 0 N 1026,8 -
14.10.2018 23:00:00 - - - - - - -
14.10.2018 22:00:00 - - - - - - -
14.10.2018 21:00:00 13,8 10,3 4 2 WNW 1026,4 -
14.10.2018 20:00:00 - - - - - - -
14.10.2018 19:00:00 - - - - - - -
14.10.2018 18:00:00 16,5 9,4 4 2 NW 1025,9 10
14.10.2018 17:00:00 - - - - - - -
14.10.2018 16:00:00 - - - - - - -
14.10.2018 15:00:00 17,6 9,9 4 2 NW 1025,9 10
14.10.2018 14:00:00 - - - - - - -
14.10.2018 13:00:00 - - - - - - -
14.10.2018 12:00:00 15,6 10,4 4 2 WNW 1026,7 10
14.10.2018 11:00:00 - - - - - - -
14.10.2018 10:00:00 - - - - - - -
14.10.2018 09:00:00 10,4 8,8 4 2 WSW 1027,1 4,0
14.10.2018 08:00:00 - - - - - - -
14.10.2018 07:00:00 - - - - - - -
14.10.2018 06:00:00 9,3 8,2 0 0 N 1026,7 -
14.10.2018 05:00:00 - - - - - - -
14.10.2018 04:00:00 - - - - - - -
14.10.2018 03:00:00 8,5 7,7 0 0 N 1027,1 -
14.10.2018 02:00:00 - - - - - - -
14.10.2018 01:00:00 - - - - - - -
14.10.2018 00:00:00 9,9 8,2 0 0 N 1027,0 -
13.10.2018 23:00:00 - - - - - - -
13.10.2018 22:00:00 - - - - - - -
13.10.2018 21:00:00 10,8 8,6 0 0 N 1027,0 -
13.10.2018 20:00:00 - - - - - - -
13.10.2018 19:00:00 - - - - - - -
13.10.2018 18:00:00 12,8 9,0 4 2 W 1026,9 10
13.10.2018 17:00:00 - - - - - - -
13.10.2018 16:00:00 - - - - - - -
13.10.2018 15:00:00 14,5 8,8 4 2 NW 1027,5 10
13.10.2018 14:00:00 - - - - - - -
13.10.2018 13:00:00 - - - - - - -
13.10.2018 12:00:00 11,6 8,4 4 2 NW 1029,0 10
13.10.2018 11:00:00 - - - - - - -
13.10.2018 10:00:00 - - - - - - -
13.10.2018 09:00:00 8,9 7,2 4 2 WNW 1029,4 4,0
13.10.2018 08:00:00 - - - - - - -
13.10.2018 07:00:00 - - - - - - -
13.10.2018 06:00:00 7,8 6,7 4 2 WNW 1029,5 -
13.10.2018 05:00:00 - - - - - - -
13.10.2018 04:00:00 - - - - - - -
13.10.2018 03:00:00 8,2 7,0 0 0 N 1030,0 -
13.10.2018 02:00:00 - - - - - - -
13.10.2018 01:00:00 - - - - - - -
13.10.2018 00:00:00 10,1 7,1 4 2 W 1030,6 -
12.10.2018 23:00:00 - - - - - - -
12.10.2018 22:00:00 - - - - - - -
12.10.2018 21:00:00 11,7 6,4 4 2 WNW 1030,5 -
12.10.2018 20:00:00 - - - - - - -
12.10.2018 19:00:00 - - - - - - -
12.10.2018 18:00:00 13,0 5,0 4 2 W 1031,1 10
12.10.2018 17:00:00 - - - - - - -
12.10.2018 16:00:00 - - - - - - -
12.10.2018 15:00:00 14,4 3,5 4 2 W 1032,8 10
12.10.2018 14:00:00 - - - - - - -
12.10.2018 13:00:00 - - - - - - -
12.10.2018 12:00:00 12,0 4,4 7 4 W 1034,8 10
12.10.2018 11:00:00 - - - - - - -
12.10.2018 10:00:00 - - - - - - -
12.10.2018 09:00:00 6,7 4,3 4 2 WNW 1036,3 4,0
12.10.2018 08:00:00 - - - - - - -
12.10.2018 07:00:00 - - - - - - -
12.10.2018 06:00:00 2,6 2,3 0 0 N 1035,4 -
12.10.2018 05:00:00 - - - - - - -
12.10.2018 04:00:00 - - - - - - -
12.10.2018 03:00:00 4,0 3,2 0 0 N 1034,7 -
12.10.2018 02:00:00 - - - - - - -
12.10.2018 01:00:00 - - - - - - -
12.10.2018 00:00:00 5,6 3,4 0 0 N 1034,3 -

tt = temperature
td = dewpoint
ff = wind speed
dd = wind direction
ppp = reduced air pressure
vv = visibility

Next stations